Location: Unspecified
(0.0000°N, 1.0000°E)
Time: 06:14:49
(UTC+02:00)

Amateur Radio Satellites - All Passes

Search period start: 31 August 2014 05:44
Search period end: 01 September 2014 05:44
Location: Unspecified, 0.0000°N, 1.0000°E

Satellite Date Start Highest point End Downlink Frequencies (MHz)
Time Altitude Azimuth
RS-15 31 Aug 05:49:59 05:55:25 14° 115° (ESE) 06:00:43 29.354 - 29.394 USB, Beacon 29.352 USB
Sapphire 31 Aug 06:02:18 06:05:50 18° 250° (WSW) 06:09:23 437.095 MHz 1200 baud AX-25 AFSK
AO-7 31 Aug 06:07:40 06:15:56 81° 286° (WNW) 06:24:14 29.400 - 29.500 MHz
Uosat F 31 Aug 06:08:56 06:13:52 63° 283° (WNW) 06:18:50 435.120 FM
OPAL 31 Aug 06:14:17 06:19:14 72° 256° (WSW) 06:24:13 ?
PANSAT 31 Aug 06:56:15 06:57:53 12° 153° (SSE) 06:59:31 not established
Hamsat 31 Aug 07:13:20 07:17:26 46° 101° (ESE) 07:21:30 145.90 MHz
JAS-2 31 Aug 07:24:32 07:30:17 64° 103° (ESE) 07:36:50 435.800 - 435.900 CW/SSB, 435.910 FM
RS-15 31 Aug 07:56:11 08:07:48 82° 290° (WNW) 08:18:53 29.354 - 29.394 USB, Beacon 29.352 USB
STRAND 1 31 Aug 07:58:27 08:03:15 41° 77° (ENE) 08:08:01 ?
SO-67 31 Aug 08:02:49 08:04:57 16° 101° (E) 08:07:05 435.3500 MHz FM
PANSAT 31 Aug 08:34:14 08:38:06 78° 150° (SSE) 08:41:58 not established
ISS 31 Aug 09:26:00 09:29:08 38° 305° (NW) 09:32:14 145.800 FM
HO-68 31 Aug 09:34:40 09:39:44 21° 105° (ESE) 09:44:47 435.675 MHz FM
SO-67 31 Aug 09:36:32 09:37:44 12° 281° (W) 09:38:57 435.3500 MHz FM
STRAND 1 31 Aug 09:40:38 09:42:08 11° 257° (WSW) 09:43:39 ?
Saudisat 1A 31 Aug 09:46:52 09:50:41 29° 68° (ENE) 09:54:29 436.775 MHz
PANSAT 31 Aug 10:15:55 10:18:17 15° 332° (NNW) 10:20:38 not established
UKube-1 31 Aug 10:36:42 10:40:39 35° 102° (ESE) 10:44:37 145.840 MHz, 145.915 MHz
Oscar 11 31 Aug 10:43:02 10:46:31 24° 102° (ESE) 10:50:00 145.825 FM, Beacon 2401.500 USB
FUNcube-1 31 Aug 11:09:55 11:13:04 18° 102° (ESE) 11:16:13 145.950 - 145.970 MHz USB
KITSAT 1 31 Aug 11:13:39 11:21:38 70° 70° (ENE) 11:29:38 435.175 FM
HO-68 31 Aug 11:20:26 11:27:05 42° 285° (WNW) 11:33:46 435.675 MHz FM
Saudisat 1A 31 Aug 11:28:21 11:30:01 12° 247° (WSW) 11:31:41 436.775 MHz
Oscar 11 31 Aug 12:20:11 12:22:26 14° 282° (WNW) 12:24:42 145.825 FM, Beacon 2401.500 USB
FUNcube-1 31 Aug 12:45:40 12:49:10 22° 282° (WNW) 12:52:42 145.950 - 145.970 MHz USB
MaSat-1 31 Aug 13:01:51 13:05:47 54° 106° (ESE) 13:10:18 437.345 MHz
KITSAT 1 31 Aug 13:13:21 13:16:48 13° 248° (WSW) 13:20:16 435.175 FM
Oscar 19 31 Aug 14:09:08 14:11:44 14° 77° (ENE) 14:14:20 437.125 CW, 437.150 USB
AO-Echo 31 Aug 14:34:30 14:35:46 11° 78° (ENE) 14:37:02 ?
Oscar 16 31 Aug 14:41:52 14:46:38 39° 77° (ENE) 14:51:24 437.025 USB, Beacon 2401.1428
ITAMSAT 1 31 Aug 14:43:06 14:45:06 12° 77° (ENE) 14:47:06 435.822 SSB
Uribyol 2 31 Aug 14:51:32 14:54:56 18° 77° (ENE) 14:58:19 436.500 FM
AO-27 31 Aug 15:09:46 15:14:13 29° 77° (ENE) 15:18:38 436.795 MHz FM
JAS-1B 31 Aug 15:34:56 15:44:34 65° 76° (ENE) 15:54:11 435.800 - 435.900 CW/SSB
SO-50 31 Aug 15:39:54 15:44:38 55° 248° (WSW) 15:49:23 436.795 FM
Gurwin Techsat 1B 31 Aug 15:40:40 15:44:54 24° 77° (ENE) 15:49:06 435.225 FM
PCSat 31 Aug 15:42:17 15:45:18 15° 110° (ESE) 15:48:18 145.825 MHz
Oscar 19 31 Aug 15:46:10 15:50:47 34° 257° (WSW) 15:55:25 437.125 CW, 437.150 USB
AO-Echo 31 Aug 16:09:19 16:14:18 44° 257° (WSW) 16:19:08 ?
ITAMSAT 1 31 Aug 16:19:30 16:24:19 39° 257° (WSW) 16:29:07 435.822 SSB
Oscar 16 31 Aug 16:23:50 16:25:42 12° 257° (WSW) 16:27:35 437.025 USB, Beacon 2401.1428
Uribyol 2 31 Aug 16:29:48 16:34:09 28° 257° (WSW) 16:38:28 436.500 FM
TMSAT-1 31 Aug 16:30:49 16:36:05 67° 78° (ENE) 16:41:19 436.925 FM
AO-7 31 Aug 16:44:10 16:50:02 21° 73° (ENE) 16:55:51 29.400 - 29.500 MHz
AO-27 31 Aug 16:50:08 16:53:27 17° 257° (WSW) 16:56:46 436.795 MHz FM
Sapphire 31 Aug 16:53:41 16:59:04 86° 289° (WNW) 17:04:28 437.095 MHz 1200 baud AX-25 AFSK
Uosat F 31 Aug 17:01:55 17:05:13 18° 77° (ENE) 17:08:30 435.120 FM
OPAL 31 Aug 17:09:12 17:12:29 17° 104° (ESE) 17:15:46 ?
Gurwin Techsat 1B 31 Aug 17:20:38 17:24:35 22° 257° (WSW) 17:28:33 435.225 FM
PCSat 31 Aug 17:23:35 17:28:26 35° 289° (WNW) 17:33:18 145.825 MHz
JAS-1B 31 Aug 17:27:47 17:34:30 22° 256° (WSW) 17:41:21 435.800 - 435.900 CW/SSB
RS-15 31 Aug 17:34:30 17:36:27 11° 67° (ENE) 17:38:25 29.354 - 29.394 USB, Beacon 29.352 USB
UOSAT-12 31 Aug 17:37:02 17:41:21 42° 248° (WSW) 17:45:37 437.025 FM, 437.400 FM
AO-7 31 Aug 18:34:25 18:42:25 51° 254° (WSW) 18:50:25 29.400 - 29.500 MHz
Uosat F 31 Aug 18:39:34 18:43:44 26° 257° (WSW) 18:47:53 435.120 FM
PANSAT 31 Aug 18:43:38 18:45:21 13° 28° (NNE) 18:47:05 not established
OPAL 31 Aug 18:46:39 18:51:06 29° 284° (WNW) 18:55:31 ?
JAS-2 31 Aug 18:58:42 19:05:08 37° 79° (E) 19:10:52 435.800 - 435.900 CW/SSB, 435.910 FM
Hamsat 31 Aug 19:20:26 19:24:38 59° 79° (ENE) 19:28:51 145.90 MHz
RS-15 31 Aug 19:37:05 19:48:38 84° 70° (ENE) 20:00:44 29.354 - 29.394 USB, Beacon 29.352 USB
PANSAT 31 Aug 20:21:43 20:25:34 82° 31° (NNE) 20:29:24 not established
STRAND 1 31 Aug 20:30:48 20:35:54 77° 283° (WNW) 20:41:02 ?
JAS-2 31 Aug 20:44:32 20:49:44 22° 254° (WSW) 20:54:33 435.800 - 435.900 CW/SSB, 435.910 FM
ISS 31 Aug 21:01:33 21:04:50 63° 235° (SW) 21:08:09 145.800 FM
SO-67 31 Aug 21:19:52 21:22:30 20° 259° (W) 21:25:08 435.3500 MHz FM
HO-68 31 Aug 21:27:06 21:31:25 17° 75° (ENE) 21:35:42 435.675 MHz FM
Saudisat 1A 31 Aug 21:52:38 21:56:51 46° 112° (ESE) 22:01:03 436.775 MHz
RS-15 31 Aug 21:55:22 22:01:05 15° 246° (WSW) 22:06:56 29.354 - 29.394 USB, Beacon 29.352 USB
PANSAT 31 Aug 22:03:31 22:05:44 15° 208° (SSW) 22:07:57 not established
UKube-1 31 Aug 22:46:20 22:50:33 49° 78° (ENE) 22:54:44 145.840 MHz, 145.915 MHz
Oscar 11 31 Aug 22:51:55 22:55:45 32° 78° (ENE) 22:59:35 145.825 FM, Beacon 2401.500 USB
HO-68 31 Aug 23:11:54 23:18:46 50° 255° (WSW) 23:25:37 435.675 MHz FM
FUNcube-1 31 Aug 23:20:37 23:23:51 22° 78° (ENE) 23:27:04 145.950 - 145.970 MHz USB
KITSAT 1 31 Aug 23:21:34 23:29:42 88° 110° (ESE) 23:37:47 435.175 FM
MaSat-1 01 Sep 00:55:02 00:58:20 43° 71° (ENE) 01:01:12 437.345 MHz
FUNcube-1 01 Sep 00:58:03 00:59:59 13° 258° (WSW) 01:01:55 145.950 - 145.970 MHz USB
SO-50 01 Sep 02:15:36 02:17:41 13° 113° (ESE) 02:19:46 436.795 FM
Oscar 19 01 Sep 02:40:48 02:45:31 37° 103° (ESE) 02:50:14 437.125 CW, 437.150 USB
AO-Echo 01 Sep 03:00:48 03:04:36 24° 103° (ESE) 03:08:28 ?
Oscar 16 01 Sep 03:15:22 03:20:32 78° 282° (WNW) 03:25:43 437.025 USB, Beacon 2401.1428
ITAMSAT 1 01 Sep 03:15:28 03:20:05 33° 103° (ESE) 03:24:45 435.822 SSB
Uribyol 2 01 Sep 03:24:48 03:29:48 47° 103° (ESE) 03:34:48 436.500 FM
TMSAT-1 01 Sep 03:32:42 03:34:34 12° 103° (ESE) 03:36:25 436.925 FM
AO-27 01 Sep 03:44:11 03:49:22 79° 103° (ESE) 03:54:36 436.795 MHz FM
JAS-1B 01 Sep 03:48:22 03:54:03 65° 103° (ESE) 03:59:44 435.800 - 435.900 CW/SSB
Sapphire 01 Sep 03:48:26 03:52:17 20° 70° (ENE) 03:56:07 437.095 MHz 1200 baud AX-25 AFSK
SO-50 01 Sep 03:54:16 03:57:59 26° 292° (WNW) 04:01:42 436.795 FM
UOSAT-12 01 Sep 04:08:51 04:11:30 15° 112° (ESE) 04:14:09 437.025 FM, 437.400 FM
PCSat 01 Sep 04:16:27 04:21:37 47° 71° (ENE) 04:26:47 145.825 MHz
Gurwin Techsat 1B 01 Sep 04:18:07 04:23:23 71° 102° (ESE) 04:28:40 435.225 FM
Oscar 19 01 Sep 04:22:13 04:24:34 13° 283° (WNW) 04:26:56 437.125 CW, 437.150 USB
AO-Echo 01 Sep 04:39:58 04:43:07 18° 282° (WNW) 04:46:21 ?
ITAMSAT 1 01 Sep 04:56:28 04:59:19 15° 283° (WNW) 05:02:10 435.822 SSB
AO-7 01 Sep 05:08:58 05:16:16 35° 106° (ESE) 05:23:34 29.400 - 29.500 MHz
TMSAT-1 01 Sep 05:09:13 05:14:10 42° 282° (WNW) 05:19:10 436.925 FM
Uosat F 01 Sep 05:30:11 05:34:52 41° 103° (ESE) 05:39:34 435.120 FM
Sapphire 01 Sep 05:30:55 05:35:25 27° 250° (WSW) 05:39:56 437.095 MHz 1200 baud AX-25 AFSK
